Starlink 11246

operational
NORAD ID: 60932 Int'l Des: 2024-155 Owner: SPXS Country: US Constellation: starlink
LEOCIRCULAR

About Starlink 11246

Description loading...

Live Position

Loading 3D Globe...

Upcoming Passes

Altitude History

Altitude vs Time

uPlot chart will show altitude changes over time

Two-Line Element Set

1 60932U 24155J 25351.29169170 -.00004746 00000-0 -34314-4 0 9990
2 60932 53.1586 27.2400 0001390 70.2590 289.8578 15.69724698 75467
Epoch: Dec 17, 2025 • Age: 11 hours

Current Status

Altitude 361.3 km
Velocity 7.70 km/s
Sub-Earth Point 31.58°N, 176.73°E
Launch Date Aug 31, 2024
Age 1.2 years
Type internet

Technical Details

Classification Payload
Mass 960.00 kg
Dry Mass 910.00 kg
Total Mass 960.00 kg
Length 0.30 m
Diameter 4.10 m
Span 29.00 m
Shape Box + pan
Manufacturer SPXS
Bus Type Starlink V2MD
Phase Status In Orbit
Owner/State SPXS/US

Large Constellations

Loading constellations...